Weather in Eltarkach

Russia / Karachay-Cherkess Republic     43°58′55″N   42°07′56″E
temp.,
°C
wind,
m/s
gust,
m/s
humid.,
%
clouds,
%
prec.,
mm/h
press.,
hPa
HPBL,
m
14 august, sun
sun1400:00+17sse22820 0.0 100919
03:00+16s22820 0.0 100813
06:00+17sse227586 0.0 100812
09:00+24ene22546 0.0 1007554
12:00+28ene43395 0.0 10061492
15:00+29e53345 0.0 10051857
18:00+26ese23523 0.1 1006240
21:00+20s33660 0.1 100723
15 august, mon
mon1500:00+19s33685 0.0 100719
03:00+20ssw225990 0.0 100615
06:00+19sse22666 0.0 100717
09:00+25ne23451 0.0 1006723
12:00+30e65340 0.0 10051532
15:00+30ese55350 0.0 10051531
18:00+28ese24510 0.1 1005256
21:00+21s33670 0.3 100722
16 august, tue
tue1600:00+20s22680 0.0 100813
03:00+19s22642 0.0 100815
06:00+17sw33750 0.0 101264
09:00+24wnw56570 0.0 1011870
12:00+28nw55414 0.0 10111715
15:00+29nnw543637 0.0 10102115
18:00+27nnw45410 0.0 1011506
21:00+20ssw33560 0.0 101328
17 august, wed
wed1700:00+19s33590 0.0 101319
03:00+18s33630 0.0 101319
06:00+18s22650 0.0 101316
09:00+25ne33480 0.0 10111013
12:00+30ene44370 0.0 10091917
15:00+31ese443223 0.0 10082422
18:00+28sse234630 0.1 1009199
21:00+22s33569 0.1 101019
18 august, thu
thu1800:00+21ssw32580 0.0 101017
03:00+18sw226884 0.0 101015
06:00+19sw226619 0.0 101018
09:00+25n22480 0.0 1009895
12:00+29nne433815 0.0 10082055
15:00+26nne2450100 0.4 1008808
18:00+25ssw116320 0.9 100813
21:00+17wnw249432 1.1 1012189